カタログに戻る

DELTA 1 DEB

運用中LEO
NORAD 5971·DEBRIS·🇺🇸 United States

打ち上げ Jan 26, 1967 から Vandenberg Space Force Base

Loading…

次のパス (今後24時間)

TLE

最新Source: Space-Track

元期: Sep 14, 2026, 07:28 UTC

1 05971U 67006E   26257.31133428 -.00000026  00000-0  10513-3 0  9990
2 05971 101.9573 205.5734 0112846 153.5185   4.5046 12.73488539772438

AllMySatでDELTA 1 DEBをリアルタイム追跡

Download on the App Store